CW4577 Weather Reports


time (UTC)temp
F
wind
direction
speed
knots
gust
knots
rain 1hr
in
rain 24hr
in
rain mn
in
humidity
%
barometer
mb
20260503224004 85 20 1.7 5.2 0.00 0.00 0.00 36 1009.2
20260503223504 85 17 1.7 7.8 0.00 0.00 0.00 38 1009.3
20260503223004 85 0 4.3 8.7 0.00 0.00 0.00 35 1009.3
20260503222504 85 27 1.7 2.6 0.00 0.00 0.00 36 1009.4
20260503221504 85 33 1.7 7.0 0.00 0.00 0.00 37 1009.6
20260503221003 85 348 2.6 7.8 0.00 0.00 0.00 34 1009.6
20260503220504 85 75 1.7 4.3 0.00 0.00 0.00 36 1009.7
20260503215504 85 42 3.5 7.8 0.00 0.00 0.00 37 1009.8
20260503215004 85 27 1.7 2.6 0.00 0.00 0.00 38 1009.9
20260503214003 85 335 2.6 5.2 0.00 0.00 0.00 37 1010.0
20260503213504 85 30 1.7 7.0 0.00 0.00 0.00 41 1010.1
20260503213004 85 36 1.7 2.6 0.00 0.00 0.00 40 1010.2
20260503212504 85 22 2.6 7.0 0.00 0.00 0.00 43 1010.2
20260503212004 85 338 2.6 7.0 0.00 0.00 0.00 38 1010.2
20260503211504 84 353 1.7 4.3 0.00 0.00 0.00 43 1010.3
20260503211004 84 19 2.6 4.3 0.00 0.00 0.00 40 1010.4
20260503210504 84 313 3.5 6.1 0.00 0.00 0.00 38 1010.4
20260503205004 83 23 2.6 7.0 0.00 0.00 0.00 43 1010.5
20260503204504 83 352 1.7 4.3 0.00 0.00 0.00 39 1010.5
20260503204004 83 22 2.6 5.2 0.00 0.00 0.00 47 1010.6
20260503203004 82 352 2.6 4.3 0.00 0.00 0.00 43 1010.7
20260503202504 82 24 3.5 7.8 0.00 0.00 0.00 46 1010.9
20260503202004 82 0 1.7 2.6 0.00 0.00 0.00 45 1010.9
20260503201503 82 317 1.7 2.6 0.00 0.00 0.00 48 1010.9
20260503201004 81 4 1.7 4.3 0.00 0.00 0.00 48 1010.9
20260503200504 81 14 2.6 4.3 0.00 0.00 0.00 49 1011.0
20260503200004 81 0 2.6 4.3 0.00 0.00 0.00 49 1011.1
20260503195504 81 338 2.6 5.2 0.00 0.00 0.00 50 1011.1
20260503195004 80 336 2.6 7.0 0.00 0.00 0.00 50 1011.2
20260503194504 80 11 1.7 2.6 0.00 0.00 0.00 52 1011.2
20260503194004 80 4 1.7 2.6 0.00 0.00 0.00 52 1011.2
20260503193504 79 336 1.7 4.3 0.00 0.00 0.00 51 1011.3
20260503193003 79 6 2.6 2.6 0.00 0.00 0.00 53 1011.4
20260503192503 79 340 2.6 4.3 0.00 0.00 0.00 50 1011.4
20260503192003 78 344 1.7 4.3 0.00 0.00 0.00 57 1011.5
20260503191004 78 354 1.7 4.3 0.00 0.00 0.00 57 1011.6
20260503190504 77 331 1.7 2.6 0.00 0.00 0.00 57 1011.6
20260503185506 76 348 1.7 2.6 0.00 0.00 0.00 57 1011.7
20260503185004 76 325 1.7 4.3 0.00 0.00 0.00 62 1011.7
20260503184504 76 357 1.7 2.6 0.00 0.00 0.00 58 1011.8
20260503183504 75 344 2.6 4.3 0.00 0.00 0.00 59 1011.8
20260503183004 74 20 1.7 4.3 0.00 0.00 0.00 61 1011.9
20260503182504 74 346 1.7 2.6 0.00 0.00 0.00 61 1012.0
20260503182004 74 349 1.7 5.2 0.00 0.00 0.00 60 1011.9
20260503181505 73 345 2.6 4.3 0.00 0.00 0.00 61 1011.9
20260503181004 73 16 1.7 5.2 0.00 0.00 0.00 63 1012.0
20260503180504 73 0 1.7 4.3 0.00 0.00 0.00 62 1011.9
20260503180004 72 5 1.7 4.3 0.00 0.00 0.00 63 1012.0
20260503175504 72 337 1.7 4.3 0.00 0.00 0.00 67 1011.9
20260503175004 71 327 1.7 4.3 0.00 0.00 0.00 65 1011.9
20260503174504 71 347 1.7 4.3 0.00 0.00 0.00 68 1012.0
20260503173004 70 331 2.6 2.6 0.00 0.00 0.00 68 1012.1
20260503172504 69 334 2.6 4.3 0.00 0.00 0.00 70 1012.2
20260503172004 69 337 2.6 4.3 0.00 0.00 0.00 71 1012.2
20260503171004 68 358 1.7 2.6 0.00 0.00 0.00 73 1012.2
20260503170505 67 10 1.7 2.6 0.00 0.00 0.00 77 1012.2
20260503131004 58 5 0.9 1.7 0.00 0.00 0.00 81 1011.8
20260503130504 58 5 0.9 1.7 0.00 0.00 0.00 81 1011.8
20260503090504 60 128 0.9 0.9 0.00 0.00 0.00 81 1012.4
20260503081503 61 110 0.0 1.7 0.00 0.00 0.00 76 1012.5
20260503081003 61 94 0.0 1.7 0.00 0.00 0.00 76 1012.4
20260503080504 61 94 0.0 1.7 0.00 0.00 0.00 76 1012.4
20260503071505 61 25 1.7 2.6 0.00 0.00 0.00 76 1012.4
20260503071004 61 26 1.7 4.3 0.00 0.00 0.00 75 1012.4
20260503070504 61 28 1.7 4.3 0.00 0.00 0.00 76 1012.5
20260503055004 63 11 0.9 1.7 0.00 0.00 0.00 79 1013.2
20260503054503 63 40 0.9 1.7 0.00 0.00 0.00 77 1013.1
20260503054004 63 40 0.9 0.9 0.00 0.00 0.00 76 1013.3
20260503053503 64 40 0.9 1.7 0.00 0.00 0.00 75 1013.2
20260503053004 64 21 0.9 1.7 0.00 0.00 0.00 75 1013.2
20260503052503 64 35 0.9 1.7 0.00 0.00 0.00 75 1013.2
20260503052003 65 88 0.9 1.7 0.00 0.00 0.00 75 1013.3
20260503051504 65 88 0.9 1.7 0.00 0.00 0.00 74 1013.3
20260503051004 65 88 0.0 0.9 0.00 0.00 0.00 73 1013.2
20260503050504 65 88 0.9 0.9 0.00 0.00 0.00 72 1013.2
20260503050004 65 88 0.0 0.0 0.00 0.00 0.00 71 1013.2
20260503045504 65 88 0.0 1.7 0.00 0.00 0.00 69 1013.1
20260503045004 66 88 0.0 0.9 0.00 0.00 0.00 66 1013.0
20260503044504 66 88 0.9 0.9 0.00 0.00 0.00 65 1013.1
20260503044004 66 88 0.0 0.0 0.00 0.00 0.00 64 1013.0
20260503043504 66 88 0.0 0.9 0.00 0.00 0.00 64 1013.0
20260503043003 66 88 0.9 0.9 0.00 0.00 0.00 64 1012.9
20260503042503 66 88 0.9 0.9 0.00 0.00 0.00 65 1012.9
20260503042004 67 88 0.9 1.7 0.00 0.00 0.00 64 1012.9
20260503041504 67 88 0.9 1.7 0.00 0.00 0.00 65 1012.8
20260503040504 67 88 0.9 1.7 0.00 0.00 0.00 64 1012.6
20260503040004 67 88 0.9 1.7 0.00 0.00 0.00 65 1012.5
20260503035504 67 88 0.9 1.7 0.00 0.00 0.00 65 1012.5
20260503035004 67 88 0.9 1.7 0.00 0.00 0.00 64 1012.4
20260503034504 68 183 0.9 0.9 0.00 0.00 0.00 63 1012.4
20260503034003 68 183 0.0 1.7 0.00 0.00 0.00 63 1012.4
20260503033504 69 98 0.9 2.6 0.00 0.00 0.00 64 1012.3
20260503033004 69 89 0.9 1.7 0.00 0.00 0.00 63 1012.2
20260503032504 70 161 0.0 1.7 0.00 0.00 0.00 61 1012.2
20260503032004 70 161 0.9 2.6 0.00 0.00 0.00 60 1012.1
20260503031504 71 146 0.9 2.6 0.00 0.00 0.00 59 1011.8
20260503031004 71 338 1.7 2.6 0.00 0.00 0.00 59 1011.6
20260503030504 71 6 1.7 2.6 0.00 0.00 0.00 57 1011.4
20260503030004 71 343 1.7 4.3 0.00 0.00 0.00 57 1011.2
20260503025504 71 359 2.6 5.2 0.00 0.00 0.00 56 1011.1
20260503024504 72 15 3.5 7.0 0.00 0.00 0.00 57 1011.0
20260503023504 73 17 2.6 2.6 0.00 0.00 0.00 56 1010.9
20260503023004 73 13 1.7 2.6 0.00 0.00 0.00 56 1011.0
20260503022504 73 9 2.6 7.0 0.00 0.00 0.00 56 1011.0
20260503022004 74 9 2.6 4.3 0.00 0.00 0.00 55 1011.0
20260503021503 74 337 2.6 7.8 0.00 0.00 0.00 54 1011.0
20260503021003 74 28 2.6 4.3 0.00 0.00 0.00 54 1011.0
20260503020503 74 1 3.5 8.7 0.00 0.00 0.00 55 1011.2
20260503020004 74 13 1.7 4.3 0.00 0.00 0.00 54 1011.1
20260503015504 75 25 4.3 10.4 0.00 0.00 0.00 54 1011.2
20260503015004 75 4 1.7 4.3 0.00 0.00 0.00 55 1011.1
20260503014504 75 24 4.3 7.8 0.00 0.00 0.00 53 1011.1
20260503014004 75 12 3.5 11.3 0.00 0.00 0.00 54 1011.1
20260503013504 75 22 1.7 2.6 0.00 0.00 0.00 56 1011.2
20260503013004 75 29 2.6 5.2 0.00 0.00 0.00 53 1011.2
20260503012503 76 21 1.7 4.3 0.00 0.00 0.00 53 1011.2
20260503012003 76 344 2.6 4.3 0.00 0.00 0.00 53 1011.2
20260503011504 76 327 1.7 5.2 0.00 0.00 0.00 53 1011.2
20260503011004 76 345 1.7 2.6 0.00 0.00 0.00 54 1011.2
20260503010504 76 5 1.7 2.6 0.00 0.00 0.00 54 1011.2
20260503010003 76 2 2.6 4.3 0.00 0.00 0.00 54 1011.2
20260503005504 76 22 2.6 4.3 0.00 0.00 0.00 53 1011.1
20260503005003 76 32 1.7 7.0 0.00 0.00 0.00 53 1011.2
20260503004504 76 342 1.7 4.3 0.00 0.00 0.00 52 1011.2
20260503004003 76 330 2.6 7.0 0.00 0.00 0.00 52 1011.2
20260503003504 76 39 1.7 4.3 0.00 0.00 0.00 55 1011.2
20260503003004 76 9 2.6 10.4 0.00 0.00 0.00 55 1011.3
20260503002504 76 32 2.6 7.8 0.00 0.00 0.00 54 1011.2
20260503002003 76 353 2.6 7.0 0.00 0.00 0.00 55 1011.3
20260503001503 76 12 2.6 7.8 0.00 0.00 0.00 54 1011.2
20260503001003 76 341 2.6 11.3 0.00 0.00 0.00 56 1011.2
20260503000504 76 344 4.3 7.8 0.00 0.00 0.00 56 1011.3
20260503000004 75 0 2.6 10.4 0.00 0.00 0.00 59 1011.3
20260502235504 75 352 5.2 10.4 0.00 0.00 0.00 56 1011.3
20260502235003 75 19 3.5 6.1 0.00 0.00 0.00 56 1011.3
20260502234503 75 14 2.6 5.2 0.00 0.00 0.00 58 1011.5
20260502234004 75 27 2.6 6.1 0.00 0.00 0.00 59 1011.5
20260502233004 74 6 2.6 7.0 0.00 0.00 0.00 59 1011.5
20260502232504 74 341 2.6 7.8 0.00 0.00 0.00 60 1011.6
20260502232003 74 355 1.7 4.3 0.00 0.00 0.00 62 1011.7
20260502231504 74 357 2.6 7.8 0.00 0.00 0.00 60 1011.9
20260502231004 74 24 2.6 5.2 0.00 0.00 0.00 59 1011.9
20260502230504 73 333 4.3 8.7 0.00 0.00 0.00 58 1011.9
20260502230003 73 37 2.6 6.1 0.00 0.00 0.00 58 1012.0
20260502225004 73 17 4.3 7.0 0.00 0.00 0.00 58 1012.2
20260502224504 73 21 1.7 5.2 0.00 0.00 0.00 62 1012.2